This is the latest recevied weather packets stored in our database for station/object K8RLH. If no packets are shown the sender has not sent any weather packets the latest 10 day(s).
| Time | Temp. | Humidity | Pressure | Rain* | Wind** | Luminosity | Snow |
|---|---|---|---|---|---|---|---|
| 1777550587 | 16.11° C | 97% | 1011.6 hPa | 0 mm | - | 39 W/m² | - |
| 1777550282 | 16.11° C | 96% | 1011.6 hPa | 0 mm | - | 37 W/m² | - |
| 1777549980 | 16.11° C | 96% | 1011.7 hPa | 0 mm | - | 17 W/m² | - |
| 1777549676 | 16.11° C | 96% | 1011.9 hPa | 0 mm | - | 15 W/m² | - |
| 1777549371 | 16.11° C | 96% | 1012 hPa | 0 mm | - | 16 W/m² | - |
| 1777549069 | 16.11° C | 96% | 1012.4 hPa | 0 mm | - | 22 W/m² | - |
| 1777548765 | 16.11° C | 96% | 1011.8 hPa | 0 mm | - | 23 W/m² | - |
| 1777548463 | 16.11° C | 96% | 1011.8 hPa | 0 mm | - | 11 W/m² | - |
| 1777548159 | 16.11° C | 96% | 1011.9 hPa | 0 mm | - | 4 W/m² | - |
| 1777547855 | 16.11° C | 96% | 1012.2 hPa | 0 mm | - | 2 W/m² | - |
| 1777547551 | 16.11° C | 96% | 1012.4 hPa | 0 mm | - | 3 W/m² | - |
| 1777547249 | 16.11° C | 95% | 1012.4 hPa | 0 mm | - | 4 W/m² | - |
| 1777546946 | 16.11° C | 95% | 1011.9 hPa | 1.78 mm | - | 2 W/m² | - |
| 1777546643 | 16.11° C | 95% | 1012 hPa | 1.78 mm | - | 1 W/m² | - |
| 1777546339 | 16.11° C | 95% | 1011.8 hPa | 0 mm | - | 1 W/m² | - |
| 1777546037 | 16.11° C | 95% | 1011.5 hPa | 1.27 mm | - | 0 W/m² | - |
| 1777545732 | 16.11° C | 95% | 1011.6 hPa | 3.05 mm | - | 0 W/m² | - |
| 1777545430 | 16.11° C | 95% | 1011.4 hPa | 1.78 mm | - | 0 W/m² | - |
| 1777545127 | 16.11° C | 95% | 1011.5 hPa | 1.27 mm | - | 0 W/m² | - |
| 1777544824 | 16.11° C | 95% | 1011.7 hPa | 1.78 mm | - | 0 W/m² | - |
| 1777544520 | 16.11° C | 95% | 1011.4 hPa | 3.56 mm | - | 0 W/m² | - |
| 1777544216 | 16.67° C | 95% | 1011.5 hPa | 3.05 mm | - | 0 W/m² | - |
| 1777543914 | 16.67° C | 95% | 1011.6 hPa | 4.32 mm | - | 0 W/m² | - |
| 1777543610 | 16.67° C | 95% | 1011.7 hPa | 6.1 mm | - | 0 W/m² | - |
| 1777543306 | 16.67° C | 95% | 1012 hPa | 7.87 mm | - | 0 W/m² | - |
* Rain latest hour (hover to see other rain measurements)
** Current wind speed in m/s (hover to see current wind gust speed)